Regional Weather Roundup
Issued by NWS

Home | Current Version | Previous Version | Text Only | Print | Product List | Glossary On
Versions: 1 2 3 4 5 6 7 8 9 10 11 12 13 14 15 16 17 18 19 20 21 22 23 24 25 26 27 28 29 30 31 32 33 34 35 36 37 38 39 40 41 42 43 44 45 46 47 48 49 50
000
ASUS43 KDTX 280101
RWRMI
MICHIGAN HOURLY REGIONAL WEATHER ROUNDUP
NATIONAL WEATHER SERVICE DETROIT/PONTIAC MI
900 PM EDT WED JUL 27 2016

NOTE: "FAIR" INDICATES FEW OR NO CLOUDS BELOW 12,000 FEET WITH NO
SIGNIFICANT WEATHER AND/OR OBSTRUCTION TO VISIBILITY.

MIZ047>049-052>055-059>063-066>070-074>076-081>083-280200-
SOUTHEAST LOWER MICHIGAN

CITY           SKY/WX    TMP DP  RH WIND       PRES   REMARKS
ADRIAN         PTCLDY    80  67  64 CALM      29.94S
ALMA           PTCLDY    72  70  95 S7        29.96S
ANN ARBOR      CLEAR     80  65  59 NW10      29.94R
BAD AXE        CLOUDY    69  66  90 NW3       29.94S
CARO           CLOUDY    68  66  94 CALM      29.95R
DETROIT CITY   MOCLDY    81  66  60 N14       29.93R
DETROIT        MOCLDY    83  63  50 N10       29.93R
FLINT          PTCLDY    77  63  61 N7        29.95S
GROSSE ILE     CLEAR     80  69  67 SW5       29.91S
HILLSDALE      CLEAR     73  68  84 CALM      29.96S
HOWELL         CLEAR     74  62  66 NW3       29.96S

CITY           SKY/WX    TMP DP  RH WIND       PRES   REMARKS
JACKSON        CLEAR     74  63  68 NW3       29.96S
LAMBERTVILLE   CLEAR     78  65  66 CALM      29.93S
LANSING        CLOUDY    73  63  70 CALM      29.97R
LAPEER         FAIR      72  63  74 S6        29.96S
MASON          CLEAR     73  62  67 CALM      29.96F
MONROE         CLEAR     79  70  73 CALM      29.91S
MT. CLEMENS    MOCLDY    77  67  71 N7        29.92S
PONTIAC        MOCLDY    77  64  64 NE5       29.94R
PORT HOPE        N/A     74  66  76 NE7       29.92S
PORT HURON     MOCLDY    72  66  83 NE5       29.95R
TRI CITIES     CLOUDY    71  70  96 SW3       29.97R
MIDLAND        FAIR      71  69  95 CALM      29.95S
TROY           MOCLDY    81  62  51 N9        29.96R
SAGINAW HB     PTCLDY    70  66  88 CALM      29.96R
$$
MIZ043>046-050>051-056>058-064>065-071>073-077>080-280200-
SOUTHWEST LOWER MICHIGAN

CITY           SKY/WX    TMP DP  RH WIND       PRES   REMARKS
BATTLE CREEK   MOCLDY    73  65  75 NE6       29.97S
BENTON HARBOR  PTCLDY    77  64  64 E3        29.92F
BIG RAPIDS     PTCLDY    73  71  96 CALM      29.95S
COLDWATER      PTCLDY    76  69  79 CALM      29.95S
FREMONT        FAIR      75  72  90 CALM      29.94S
HOLLAND        CLEAR     79  68  69 E5        29.93F
GRAND RAPIDS   MOCLDY    75  64  68 SE3       29.95F
IONIA          FAIR      71  63  74 E3        29.95S
KALAMAZOO      CLEAR     78  64  61 NE7       29.95S
LUDINGTON      CLOUDY    73  65  77 N3        29.94S
MARSHALL       CLEAR     74  62  66 CALM      29.96S
MOUNT PLEASANT CLOUDY    71  69  93 CALM      29.95F
MUSKEGON       MOCLDY    77  71  82 W5        29.93F
SOUTH HAVEN    PTCLDY    76  67  74 CALM      29.93F
$$
MIZ016>042-280200-
NORTHERN LOWER MICHIGAN

CITY           SKY/WX    TMP DP  RH WIND       PRES   REMARKS
ALPENA         HVY RAIN  70  66  87 SE6       29.96R FOG
BEAVER ISLAND  CLOUDY    71  65  81 CALM      29.97F
BELLAIRE       CLOUDY    74  65  74 CALM      29.95S
CADILLAC       CLOUDY    74  66  76 CALM      29.97S
CHARLEVOIX     CLOUDY    72  68  88 NW5       29.99F
FRANKFORT      CLOUDY    74  63  67 CALM      29.95S
GAYLORD        MOCLDY    76  65  68 N5        29.97S
GRAYLING       CLOUDY    75  65  71 NW6       29.97F
HARBOR SPRINGS CLOUDY    73  67  83 E3        29.96S
HOUGHTON LAKE  CLOUDY    75  68  78 SW5       29.96F
OSCODA         LGT RAIN  71  65  82 CALM      29.93F
ROGERS CITY    CLOUDY    73  64  72 CALM      29.97R
TRAVERSE CITY  CLOUDY    76  66  71 N6        29.93S
$$
MIZ007>008-015-280200-
EASTERN UPPER MICHIGAN

CITY           SKY/WX    TMP DP  RH WIND       PRES   REMARKS
KINROSS        MOCLDY    66  58  75 NW7       29.98R
MACKINAC ISLAN CLOUDY    68  57  67 N8        29.97S
S. S. MARIE    CLOUDY    68  59  73 NW7       29.96S
$$
MIZ004>006-011>014-085-280200-
CENTRAL UPPER MICHIGAN

CITY           SKY/WX    TMP DP  RH WIND       PRES   REMARKS
MANISTIQUE     CLOUDY    66  60  81 N8        29.98S
ESCANABA       CLOUDY    70  57  64 N8        29.97S
MENOMINEE      CLOUDY   N/A N/A N/A CALM      29.97R
SAWYER-GWINN   CLOUDY    61  57  88 NE7       30.03S
$$
MIZ001>003-009>011-084-280200-
WESTERN UPPER MICHIGAN

CITY           SKY/WX    TMP DP  RH WIND       PRES   REMARKS
IRON MOUNTAIN  LGT RAIN  67  57  70 VRB6      29.99R
HOUGHTON       MOCLDY    62  59  90 S3        30.02R
COPPER HARBOR    N/A     65  55  70 CALM      30.01
IRONWOOD       CLOUDY    64  64 100 NE3       30.00S
$$

ABBREVIATIONS USED IN REMARKS
   TC - TEMPERATURE IN CELSIUS
  WCI - WIND CHILL INDEX
   HX - HEAT INDEX
  VSB - VISIBILITY




USA.gov is the U.S. government's official web portal to all federal, state and local government web resources and services.